CAPE
0 1 1 2 1 0 2 3 5 2 32 3 1 2 2 2 2 2 1 2 2 2 0 0 0 0 0 0 0 0 0 0 0 0 0 0 0 0 0 0 0 0 0
0 1 1 1 1 1 3 2 2 3 89 9 2 2 2 2 1 1 1 2 2 1 0 0 0 0 0 0 0 0 0 0 0 0 0 0 0 0 0 0 0 0 0
0 0 1 1 2 1 2 2 1 2 47 4 1 2 2 1 1 1 1 1 1 0 0 0 0 0 0 0 0 0 0 0 0 0 0 0 0 0 0 0 0 0 0
0 0 0 1 1 1 1 2 3 4 4 8 1 1 1 1 1 1 1 0 0 0 0 0 0 0 0 0 0 0 0 0 0 0 0 0 0 0 0 0 0 0 0
0 0 0 0 1 1 1 2 3 3 4 9 1 1 1 1 1 1 1 1 1 0 0 0 0 0 0 0 0 0 0 0 0 0 0 0 0 0 0 0 0 0 0
0 0 0 0 1 1 0 3 4 3 3 3 1 1 2 1 0 1 1 1 0 0 0 0 0 0 0 0 0 0 0 0 0 0 0 0 0 0 0 0 0 0 0
0 0 0 0 0 1 0 2 3 4 3 0 1 1 2 2 0 0 0 0 0 1 0 0 0 0 0 0 0 0 0 0 0 0 0 0 0 0 0 0 0 0 0
0 0 0 0 0 1 0 1 3 4 5 1 1 1 1 2 0 0 0 0 0 0 0 0 0 0 0 0 0 0 0 0 0 0 0 0 0 0 0 0 0 0 0
0 0 0 0 0 0 0 0 3 3 5 1 0 1 1 1 0 0 1 0 0 0 0 0 0 0 0 0 0 0 0 0 0 0 0 0 0 0 0 0 0 0 0
0 0 0 0 0 0 0 0 1 2 3 2 1 0 1 1 0 0 1 1 2 1 0 0 0 0 0 0 0 0 0 0 0 0 0 0 0 0 0 0 0 0 0
0 0 0 0 0 0 0 0 0 2 2 4 1 1 1 1 1 1 1 1 1 1 0 0 0 0 0 0 0 0 0 0 0 0 0 0 0 0 0 0 0 0 0
0 0 0 0 0 0 0 0 0 1 2 3 1 1 1 1 0 1 2 1 0 1 1 0 0 0 0 0 0 0 0 0 0 0 0 0 0 0 0 0 0 0 0
0 0 0 0 0 0 0 0 1 0 1 2 2 2 0 1 1 1 1 1 0 1 0 0 0 0 0 0 0 0 0 0 0 0 0 0 0 0 0 0 0 0 0
0 0 0 0 0 0 0 0 0 0 0 2 1 0 0 1 2 2 3 2 0 0 0 0 0 0 0 0 1 0 0 0 0 0 0 0 0 0 0 0 0 0 0
0 0 0 0 0 0 0 0 0 0 0 1 2 2 1 0 1 1 1 2 0 0 0 0 0 1 3 1 0 0 0 0 0 0 0 0 0 0 0 0 0 0 0
0 0 0 0 0 0 0 0 0 1 1 2 0 0 2 2 2 0 1 1 0 0 1 3 4 4 4 3 1 0 0 0 0 0 0 0 0 0 0 0 0 0 0
0 0 0 0 0 0 0 0 0 0 0 2 3 1 1 3 2 0 0 0 1 1 1 3 4 4 3 3 2 1 0 0 0 0 0 0 0 0 0 0 0 0 0
0 0 0 0 0 0 0 0 0 0 0 0 0 1 0 1 1 1 0 0 1 1 2 2 3 3 2 2 1 2 0 0 0 0 0 0 0 0 0 0 0 0 0
0 0 0 0 0 0 0 0 0 0 0 0 0 0 0 1 1 0 0 1 1 1 1 2 1 2 2 1 1 1 1 0 0 0 0 0 0 0 0 0 0 0 0
0 0 0 0 0 0 0 0 0 0 0 0 0 0 0 0 1 1 1 0 1 1 1 1 1 1 1 1 1 2 1 0 0 0 0 0 1 0 0 0 0 0 0
0 0 0 0 0 0 0 0 0 0 0 0 0 0 2 1 0 1 1 0 0 0 1 1 1 1 1 2 1 2 1 0 0 0 0 5 3 2 0 0 0 0 0
0 0 0 0 0 0 0 0 0 0 0 0 0 0 2 0 0 1 1 0 0 0 0 1 0 1 1 2 1 2 1 0 0 0 3 7 3 0 0 0 0 0 0
0 0 0 0 0 0 0 0 0 0 0 0 0 0 0 0 0 0 0 0 0 0 0 1 1 1 1 2 1 1 1 0 0 1 5 6 2 0 0 0 0 0 0
0 0 0 0 0 0 0 0 0 0 0 0 0 0 0 0 0 0 0 0 0 0 1 1 1 1 1 2 2 1 1 1 1 1 1 1 1 0 0 0 0 0 0
0 0 0 0 0 0 0 0 0 0 0 0 0 0 0 0 0 0 0 0 0 0 0 0 0 1 1 2 2 2 1 1 2 3 1 1 0 0 0 0 0 0 0
0 0 0 0 0 0 0 0 0 0 0 0 0 0 0 0 0 0 0 0 0 0 1 0 0 1 1 1 1 1 3 4 3 2 0 0 0 0 0 0 0 0 0
CIN
0 0 0 0 0 0 0 0 0 0 -1 -14 0 0 0 0 0 0 0 0 0 0 0 0 0 0 0 0 0 0 0 0 0 0 0 0 0 0 0 0 0 0 0
0 0 0 0 0 0 0 0 0 0 0 -4 0 0 0 0 0 0 0 0 0 0 0 0 0 0 0 0 0 0 0 0 0 0 0 0 0 0 0 0 0 0 0
0 0 0 0 0 0 0 0 0 0 -11 -33 0 0 0 0 0 0 0 0 0 0 0 0 0 0 0 0 0 0 0 0 0 0 0 0 0 0 0 0 0 0 0
0 0 0 0 0 0 0 0 0 0 0 -19 0 0 0 0 0 0 0 0 0 0 0 0 0 0 0 0 0 0 0 0 0 0 0 0 0 0 0 0 0 0 0
0 0 0 0 0 0 0 0 0 0 0 -2 0 0 0 0 0 0 0 0 0 0 0 0 0 0 0 0 0 0 0 0 0 0 0 0 0 0 0 0 0 0 0
0 0 0 0 0 0 0 0 0 0 0 -18 0 0 0 0 0 0 0 0 0 0 0 0 0 0 0 0 0 0 0 0 0 0 0 0 0 0 0 0 0 0 0
0 0 0 0 0 0 0 0 0 0 0 0 0 0 0 0 0 0 0 0 0 0 0 0 0 0 0 0 0 0 0 0 0 0 0 0 0 0 0 0 0 0 0
0 0 0 0 0 0 0 0 0 0 0 0 0 0 0 0 0 0 0 0 0 0 0 0 0 0 0 0 0 0 0 0 0 0 0 0 0 0 0 0 0 0 0
0 0 0 0 0 0 0 0 0 0 0 0 0 0 0 0 0 0 0 0 0 0 0 0 0 0 0 0 0 0 0 0 0 0 0 0 0 0 0 0 0 0 0
0 0 0 0 0 0 0 0 0 0 0 0 0 0 0 0 0 0 0 0 0 0 0 0 0 0 0 0 0 0 0 0 0 0 0 0 0 0 0 0 0 0 0
0 0 0 0 0 0 0 0 0 0 0 0 0 0 0 0 0 0 0 0 0 0 0 0 0 0 0 0 0 0 0 0 0 0 0 0 0 0 0 0 0 0 0
0 0 0 0 0 0 0 0 0 0 0 0 0 0 0 0 0 0 0 0 0 0 0 0 0 0 0 0 0 0 0 0 0 0 0 0 0 0 0 0 0 0 0
0 0 0 0 0 0 0 0 0 0 0 0 0 0 0 0 0 0 0 0 0 0 0 0 0 0 0 0 0 0 0 0 0 0 0 0 0 0 0 0 0 0 0
0 0 0 0 0 0 0 0 0 0 0 0 0 0 0 0 0 0 0 0 0 0 0 0 0 0 0 0 0 0 0 0 0 0 0 0 0 0 0 0 0 0 0
0 0 0 0 0 0 0 0 0 0 0 0 0 0 0 0 0 0 0 0 0 0 0 0 0 0 0 0 0 0 0 0 0 0 0 0 0 0 0 0 0 0 0
0 0 0 0 0 0 0 0 0 0 0 0 0 0 0 0 0 0 0 0 0 0 0 0 0 0 0 0 0 0 0 0 0 0 0 0 0 0 0 0 0 0 0
0 0 0 0 0 0 0 0 0 0 0 0 0 0 0 0 0 0 0 0 0 0 0 0 0 0 0 0 0 0 0 0 0 0 0 0 0 0 0 0 0 0 0
0 0 0 0 0 0 0 0 0 0 0 0 0 0 0 0 0 0 0 0 0 0 0 0 0 0 0 0 0 0 0 0 0 0 0 0 0 0 0 0 0 0 0
0 0 0 0 0 0 0 0 0 0 0 0 0 0 0 0 0 0 0 0 0 0 0 0 0 0 0 0 0 0 0 0 0 0 0 0 0 0 0 0 0 0 0
0 0 0 0 0 0 0 0 0 0 0 0 0 0 0 0 0 0 0 0 0 0 0 0 0 0 0 0 0 0 0 0 0 0 0 0 0 0 0 0 0 0 0
0 0 0 0 0 0 0 0 0 0 0 0 0 0 0 0 0 0 0 0 0 0 0 0 0 0 0 0 0 0 0 0 0 0 0 0 0 0 0 0 0 0 0
0 0 0 0 0 0 0 0 0 0 0 0 0 0 0 0 0 0 0 0 0 0 0 0 0 0 0 0 0 0 0 0 0 0 0 0 0 0 0 0 0 0 0
0 0 0 0 0 0 0 0 0 0 0 0 0 0 0 0 0 0 0 0 0 0 0 0 0 0 0 0 0 0 0 0 0 0 0 0 0 0 0 0 0 0 0
0 0 0 0 0 0 0 0 0 0 0 0 0 0 0 0 0 0 0 0 0 0 0 0 0 0 0 0 0 0 0 0 0 0 0 0 0 0 0 0 0 0 0
0 0 0 0 0 0 0 0 0 0 0 0 0 0 0 0 0 0 0 0 0 0 0 0 0 0 0 0 0 0 0 0 0 0 0 0 0 0 0 0 0 0 0
0 0 0 0 0 0 0 0 0 0 0 0 0 0 0 0 0 0 0 0 0 0 0 0 0 0 0 0 0 0 0 0 0 0 0 0 0 0 0 0 0 0 0
Wind_Speed
44 46 47 48 48 48 49 53 53 53 45 43 34 28 32 35 34 32 33 27 31 30 27 26 26 23 27 27 24 22 22 17 18 21 20 19 18 15 15 16 15 16 19
42 44 46 46 47 48 49 52 51 53 53 47 42 35 33 36 36 35 33 32 29 33 33 30 30 24 21 29 17 20 14 13 17 16 19 19 19 16 12 14 15 17 20
41 43 45 46 46 46 49 50 52 51 50 45 44 41 38 38 38 38 35 35 35 36 32 29 27 27 28 29 19 17 13 12 16 17 18 15 16 15 14 17 16 14 16
39 41 43 44 45 45 48 50 51 52 52 50 46 39 37 40 39 39 39 37 34 31 29 25 25 24 23 21 21 20 18 14 17 16 15 10 12 13 14 16 16 15 17
38 39 41 43 42 43 46 47 49 50 52 49 47 44 41 41 41 41 40 39 35 35 30 29 28 27 25 22 23 21 22 18 19 16 16 14 15 14 13 14 17 18 19
37 37 38 39 40 42 43 47 47 49 51 50 48 43 45 43 43 41 39 39 38 36 34 33 32 29 29 26 25 24 23 21 20 18 15 14 14 15 14 15 16 18 23
37 37 37 36 38 39 40 44 47 47 50 53 47 41 41 44 44 40 39 38 38 37 35 34 32 30 27 27 26 25 24 23 20 18 16 18 19 18 17 16 17 17 19
34 35 36 37 38 37 38 43 45 45 47 49 51 46 43 44 41 40 39 39 39 38 36 34 31 29 27 25 25 25 25 25 23 22 22 23 25 18 16 15 16 17 20
34 33 34 35 35 36 39 42 43 43 48 49 52 47 44 45 42 42 40 39 39 39 37 35 33 31 29 27 26 27 26 26 25 23 23 23 21 16 15 15 17 19 21
35 34 34 33 33 35 37 41 41 42 46 49 49 45 49 44 41 43 41 41 42 40 37 35 32 31 29 27 27 27 28 26 25 25 25 22 19 16 15 18 16 19 22
35 34 34 33 33 33 34 37 39 41 43 47 49 44 45 41 44 43 42 40 40 39 38 36 33 31 29 28 28 27 27 28 26 23 22 20 18 17 19 19 18 21 22
34 34 34 33 33 33 34 35 37 40 42 44 43 45 43 42 42 42 42 42 39 39 39 35 33 31 30 30 29 28 27 23 23 23 23 22 20 19 18 19 19 19 19
34 34 33 33 32 31 32 31 34 37 40 39 41 46 44 42 42 39 41 40 38 39 37 35 34 31 31 30 30 28 26 26 25 25 24 23 20 17 15 16 16 15 16
34 34 33 33 33 32 30 30 31 37 37 38 40 41 41 46 46 39 42 41 38 37 35 33 32 30 31 32 31 29 29 28 27 27 25 23 19 17 16 15 14 14 15
34 34 33 33 33 33 32 32 33 36 36 39 36 37 42 48 44 40 40 39 36 35 31 30 30 31 31 32 31 30 28 26 26 25 23 23 20 17 16 15 15 12 15
33 33 32 32 32 32 32 34 31 33 33 32 33 37 39 41 41 43 42 41 37 33 34 34 34 33 34 34 32 31 29 27 26 24 23 21 20 18 17 17 13 12 12
33 33 32 32 32 31 31 31 32 33 31 30 31 33 38 44 42 45 42 40 38 36 39 37 36 37 36 32 32 33 32 30 26 24 23 21 19 17 14 14 12 10 11
33 33 32 32 32 31 31 30 30 30 32 31 30 30 31 39 40 40 41 37 37 37 41 42 40 38 34 32 31 30 29 27 25 24 22 20 19 17 15 14 12 10 8
33 32 32 32 32 31 31 30 30 30 28 31 29 29 31 34 41 43 41 43 43 41 43 40 37 34 32 30 30 29 28 27 25 23 21 20 20 18 16 13 11 10 8
32 32 32 32 32 31 30 30 30 29 28 28 28 29 31 32 36 42 44 44 46 44 43 41 37 34 31 31 29 28 27 25 23 22 22 22 20 18 16 13 13 9 8
32 32 32 32 31 31 31 30 30 29 28 28 28 29 30 31 35 37 38 44 43 43 42 38 36 34 32 31 30 29 28 26 24 24 22 21 20 18 15 14 12 9 6
30 32 32 31 31 31 30 29 29 29 29 28 29 29 27 28 30 34 38 41 40 40 38 36 35 33 31 30 30 30 29 27 26 25 23 22 20 18 16 15 12 9 6
31 32 32 31 31 31 29 28 28 28 28 28 28 28 25 26 28 31 34 34 35 36 33 33 31 31 30 29 30 31 30 29 27 25 23 22 21 19 18 15 12 8 6
31 31 31 31 30 30 30 29 29 29 28 28 28 26 24 24 27 28 29 30 31 33 32 33 33 33 30 30 31 31 29 27 26 27 25 23 21 21 18 15 11 8 6
29 29 29 29 29 29 30 29 28 29 28 27 26 26 24 25 24 25 26 27 28 32 33 32 34 32 29 30 27 27 27 26 26 26 26 25 24 22 19 14 11 8 6
28 28 28 28 28 28 28 28 28 28 28 27 25 24 24 25 24 23 23 25 27 27 30 31 31 30 28 27 26 25 25 26 25 26 26 25 23 21 17 14 11 9 7
Wind_Direction
266 262 259 258 256 253 249 246 242 243 239 233 233 231 231 230 230 231 233 224 227 232 233 242 242 245 248 250 254 261 266 279 279 283 284 282 286 273 267 278 288 294 299
268 263 259 259 256 251 249 246 243 242 238 236 232 235 234 232 230 230 229 231 221 229 236 244 243 240 239 252 239 254 256 272 280 280 283 282 286 287 272 278 287 294 298
273 267 262 257 257 253 249 247 242 242 238 235 233 236 235 232 231 232 232 233 233 237 239 240 240 240 247 250 223 228 242 258 279 280 280 287 294 289 287 287 290 296 305
275 270 263 259 258 255 251 248 244 241 241 233 234 234 236 234 233 232 233 235 236 238 238 235 234 231 234 230 227 230 242 247 268 272 278 276 292 295 293 288 291 299 305
277 270 266 262 260 258 252 249 245 242 242 232 234 239 238 234 234 234 234 235 236 238 240 240 239 241 241 239 238 232 240 243 256 261 272 278 278 284 282 291 297 301 305
279 271 271 267 262 257 255 249 247 241 239 231 232 237 235 234 235 234 233 235 236 237 239 243 244 243 247 243 241 239 232 236 247 255 261 263 273 286 284 294 296 301 300
283 274 272 272 267 262 257 251 246 242 241 233 230 235 238 236 233 234 232 235 236 237 240 241 242 246 242 246 243 242 236 239 240 240 246 265 278 280 287 288 286 293 302
285 278 274 273 271 267 259 251 248 243 242 235 231 236 239 235 232 230 230 234 237 237 238 239 239 240 240 242 242 242 243 241 245 251 264 275 283 286 286 285 286 295 304
284 280 277 276 274 269 260 254 250 245 242 236 234 233 237 235 232 231 229 234 236 236 240 239 239 241 237 239 243 243 246 249 253 257 267 277 282 283 282 287 289 294 301
285 281 278 277 275 270 264 258 253 249 243 239 237 235 234 235 232 229 227 233 235 235 238 239 237 241 237 235 241 245 245 248 249 256 263 269 276 276 277 288 290 294 303
284 281 279 278 274 271 269 263 255 251 247 243 236 239 234 235 235 227 225 230 233 233 236 237 239 239 238 237 243 247 248 254 250 246 254 259 267 272 279 287 293 298 300
285 279 278 277 277 277 275 269 260 252 248 246 240 238 235 235 234 229 224 230 231 232 236 239 241 237 239 242 243 249 251 247 244 244 247 252 259 267 276 286 295 303 310
285 279 276 276 272 275 274 275 264 256 250 248 239 235 236 236 233 231 225 227 230 235 238 239 239 236 239 242 243 247 242 246 242 243 244 251 257 261 274 286 295 306 315
281 280 277 274 273 275 270 269 268 256 252 249 245 242 240 236 232 231 230 228 231 234 235 235 237 237 240 245 244 245 246 245 243 245 248 253 254 260 262 273 283 295 302
282 282 279 276 274 274 273 274 272 261 255 252 249 245 240 232 232 232 231 228 228 229 229 233 234 237 240 243 243 244 245 244 243 244 242 245 248 247 261 268 278 284 295
282 279 279 275 274 271 266 267 273 269 264 256 252 246 242 240 238 232 231 228 225 223 229 232 235 237 238 239 239 241 242 241 242 242 240 236 235 244 252 264 268 276 288
280 278 276 275 272 269 268 271 273 273 269 257 258 254 244 239 238 236 233 230 227 222 232 232 235 236 240 239 238 240 241 242 240 239 236 231 236 241 238 244 251 267 284
278 277 276 275 273 269 267 264 261 263 259 254 258 254 252 242 240 240 231 228 225 225 232 234 237 238 239 238 239 239 237 236 234 231 229 229 231 229 231 232 239 252 265
276 274 276 276 273 270 265 263 263 264 262 254 258 253 251 247 238 236 231 229 229 229 233 235 236 236 237 237 238 236 233 229 226 224 226 225 227 227 228 227 232 241 266
274 272 276 275 273 269 266 261 260 260 264 256 257 255 253 246 240 236 233 232 231 231 233 235 234 234 235 235 233 230 226 223 219 218 218 224 227 225 219 218 223 230 259
272 271 274 272 267 269 268 261 259 257 259 255 254 255 256 254 246 242 238 234 235 234 232 232 232 234 234 233 228 224 222 219 217 220 218 219 220 217 217 221 227 233 245
273 274 273 269 268 268 267 264 262 261 261 257 256 256 259 257 254 247 239 236 235 233 231 230 232 231 231 227 223 220 217 215 215 218 220 217 213 212 216 213 219 222 239
277 275 271 268 267 268 267 265 261 259 261 261 260 256 259 256 256 247 238 237 232 230 231 230 229 232 231 228 224 221 217 216 212 208 207 207 206 210 206 206 203 211 217
278 274 270 268 267 267 265 265 264 260 262 261 258 256 258 262 256 248 241 237 233 232 232 231 231 229 227 227 228 226 223 218 212 210 206 202 203 200 203 199 204 205 199
279 272 270 267 269 266 264 264 264 262 263 263 261 264 261 260 259 251 245 240 236 233 232 231 230 226 221 220 219 215 211 202 207 203 203 199 193 192 194 196 191 194 190
278 272 270 267 267 267 266 264 266 262 263 264 265 269 266 260 259 256 251 241 236 234 232 230 225 221 215 212 208 202 193 194 192 189 188 187 186 187 186 183 179 178 171